TimeCDT,TemperatureF,Dew PointF,Humidity,Sea Level PressureIn,VisibilityMPH,Wind Direction,Wind SpeedMPH,Gust SpeedMPH,PrecipitationIn,Events,Conditions,WindDirDegrees,DateUTC
12:02 AM,44.6,41.0,87,30.16,10.0,NW,5.8,-,N/A,,Overcast,320,2012-10-06 05:02:00
12:14 AM,44.6,39.2,81,30.16,10.0,North,8.1,-,N/A,,Overcast,360,2012-10-06 05:14:00
12:23 AM,44.6,39.2,81,30.16,10.0,NNW,5.8,-,N/A,,Overcast,340,2012-10-06 05:23:00
12:54 AM,44.1,39.9,85,30.17,10.0,North,6.9,-,N/A,,Overcast,350,2012-10-06 05:54:00
1:05 AM,44.6,39.2,81,30.17,10.0,NNW,8.1,-,N/A,,Overcast,340,2012-10-06 06:05:00
1:21 AM,42.8,39.2,87,30.17,10.0,NNW,6.9,-,N/A,,Mostly Cloudy,340,2012-10-06 06:21:00
1:54 AM,43.0,39.0,86,30.17,10.0,North,6.9,-,N/A,,Scattered Clouds,350,2012-10-06 06:54:00
2:54 AM,42.1,39.0,89,30.17,10.0,NW,5.8,-,N/A,,Clear,320,2012-10-06 07:54:00
3:54 AM,41.0,36.0,82,30.18,10.0,NW,5.8,-,N/A,,Clear,320,2012-10-06 08:54:00
4:54 AM,39.9,37.0,89,30.19,10.0,Calm,Calm,-,N/A,,Clear,0,2012-10-06 09:54:00
5:54 AM,39.0,36.0,89,30.20,10.0,Calm,Calm,-,N/A,,Clear,0,2012-10-06 10:54:00
6:54 AM,37.9,35.1,89,30.23,10.0,NW,6.9,-,N/A,,Clear,310,2012-10-06 11:54:00
7:54 AM,39.9,36.0,86,30.24,10.0,NNW,3.5,-,N/A,,Clear,330,2012-10-06 12:54:00
8:54 AM,43.0,36.0,76,30.24,10.0,NNW,6.9,-,N/A,,Clear,340,2012-10-06 13:54:00
9:54 AM,48.0,35.1,61,30.25,10.0,North,4.6,-,N/A,,Clear,360,2012-10-06 14:54:00
10:54 AM,51.1,34.0,52,30.22,10.0,NNE,9.2,-,N/A,,Clear,30,2012-10-06 15:54:00
11:54 AM,51.1,33.1,50,30.22,10.0,WNW,6.9,-,N/A,,Clear,300,2012-10-06 16:54:00
12:54 PM,53.1,33.1,47,30.20,10.0,WNW,8.1,-,N/A,,Clear,300,2012-10-06 17:54:00
1:54 PM,55.9,34.0,44,30.19,10.0,NW,8.1,-,N/A,,Clear,320,2012-10-06 18:54:00
2:54 PM,54.0,30.9,41,30.19,10.0,NNW,12.7,16.1,N/A,,Scattered Clouds,340,2012-10-06 19:54:00
3:54 PM,52.0,32.0,47,30.18,10.0,NW,8.1,-,N/A,,Clear,320,2012-10-06 20:54:00
4:54 PM,52.0,32.0,47,30.18,10.0,NNW,6.9,-,N/A,,Mostly Cloudy,330,2012-10-06 21:54:00
5:54 PM,51.1,33.1,50,30.18,10.0,NNW,5.8,-,N/A,,Overcast,330,2012-10-06 22:54:00
6:54 PM,50.0,35.1,57,30.19,10.0,NW,5.8,-,N/A,,Overcast,320,2012-10-06 23:54:00
7:54 PM,50.0,35.1,57,30.17,10.0,North,8.1,-,N/A,,Overcast,360,2012-10-07 00:54:00
8:54 PM,48.0,35.1,61,30.20,10.0,NNW,5.8,-,N/A,,Overcast,330,2012-10-07 01:54:00
9:54 PM,48.0,36.0,63,30.22,10.0,West,3.5,-,N/A,,Overcast,270,2012-10-07 02:54:00
10:54 PM,46.9,37.9,71,30.21,10.0,WNW,3.5,-,N/A,,Mostly Cloudy,290,2012-10-07 03:54:00
11:54 PM,46.9,37.0,68,30.20,10.0,Variable,3.5,-,N/A,,Mostly Cloudy,0,2012-10-07 04:54:00